カタログに戻る

STARLINK-35039

運用中通信SSO
NORAD 65451·PAYLOAD·🇺🇸 United States

打ち上げ Sep 3, 2025 から Vandenberg Space Force Base

Loading…

次のパス (今後24時間)

TLE

最新Source: CelesTrak SupGP

元期: Sep 14, 2026, 22:51 UTC

1 65451C 25194T   26257.95256944  .00058439  00000+0  18144-2 0  2573
2 65451  97.2841 107.6785 0001711  90.1535  66.8888 15.33404154    16

AllMySatでSTARLINK-35039をリアルタイム追跡

Download on the App Store